Location: Jelenia Góra
(50.8952°N, 15.7353°E)
Time: 22:19:44
(UTC+01:00)

ISS - Visible Passes

Search period start: 19 January 2018 00:00
Search period end: 29 January 2018 00:00
Orbit: 402 x 407 km, 51.6° (Epoch: 20 January)

Date Brightness Start Highest point End Pass type
(mag) Time Alt. Az. Time Alt. Az. Time Alt. Az.
26 Jan -1.6 18:55:01 10° SSW 18:56:12 17° S 18:56:12 17° S visible
27 Jan -1.9 18:03:26 10° S 18:05:33 16° SE 18:06:11 15° SE visible
27 Jan -0.8 19:38:19 10° WSW 19:38:51 14° WSW 19:38:51 14° WSW visible
28 Jan -3.0 18:46:06 10° SW 18:48:46 39° S 18:48:46 39° S visible
